Retour au catalogue

ONEWEB-0532

ActifCommunicationsPO
NORAD 55140·PAYLOAD·🇬🇧 United Kingdom

Lancé Jan 10, 2023 depuis Cape Canaveral Space Force Station

Loading…

Prochains Passages (prochaines 24 heures)

TLE

FraisSource: CelesTrak SupGP

Époque: Sep 14, 2026, 15:40 UTC

1 55140C 23004A   26257.65326806  .00004029  00000+0  10389-1 0  2575
2 55140  87.9201 348.0962 0001732 111.3524 325.0527 13.17646601    16

Suivez ONEWEB-0532 en temps réel avec AllMySat

Download on the App Store